Wind_Speed
101 88 74 63 55 49 41 33 27 24 23 21 20 22 26 28 27 26 26 28 31 34 37 42 45 47 47 43 36 29 24 19 16 14 14 15 18 21 23 26 30 35 38 42 48 54 62 68 73 77 79 80 81 81 83 86 88 90 91 92 92 88 87 89 90 91 96 96 94 94 95 97 98 98 97 96 95 94 94 96 96 94 93 93 89 85 83
98 82 69 60 53 46 39 31 26 23 21 19 18 23 27 28 26 25 26 29 32 35 39 44 47 48 47 43 36 30 25 20 15 13 12 13 15 18 21 23 27 31 36 40 44 49 55 61 66 71 74 76 78 79 82 84 85 86 87 87 85 83 85 89 90 91 94 94 92 93 95 96 98 101 101 101 100 98 96 97 98 97 96 94 90 85 83
94 78 66 57 50 44 37 30 25 22 18 15 17 24 29 29 27 26 28 31 34 36 40 44 47 47 46 42 35 30 26 21 16 13 11 11 13 16 19 22 24 28 33 38 42 45 49 54 58 63 68 71 74 76 79 81 82 83 83 82 82 84 86 87 88 90 92 93 93 94 96 98 100 102 103 104 104 100 96 95 94 94 97 96 92 87 85
90 74 62 55 48 41 35 29 24 20 16 14 17 24 29 30 29 28 28 31 34 36 40 44 46 47 45 40 34 30 26 22 17 13 11 10 12 15 17 20 23 25 29 34 40 43 46 49 53 56 60 64 68 72 75 78 80 81 81 81 83 85 86 86 87 88 90 93 95 97 97 97 98 100 103 104 103 101 98 96 94 94 97 97 94 91 89
86 71 60 52 45 38 33 29 24 19 16 15 17 24 28 28 28 28 28 31 34 36 40 44 46 47 45 39 33 30 26 22 18 14 10 9 11 13 16 18 22 24 26 30 36 40 43 46 49 52 55 58 62 67 71 75 78 79 80 81 82 82 84 85 86 87 90 91 93 95 95 95 98 103 105 104 105 104 100 97 96 97 99 98 95 92 90
83 68 58 50 43 36 31 27 24 20 17 15 18 24 28 28 28 27 27 31 34 37 41 45 46 47 44 38 33 30 26 22 18 14 11 9 9 12 16 18 21 24 27 29 31 35 40 44 46 48 51 55 58 62 66 71 75 76 78 79 79 80 83 86 87 89 92 92 92 92 94 96 99 102 102 103 104 104 101 100 100 101 101 99 96 93 91
80 66 56 48 41 34 29 26 23 20 17 15 18 25 28 28 29 28 28 31 34 37 42 45 47 48 44 38 33 30 26 22 18 14 12 9 9 11 15 18 21 24 26 28 29 31 36 40 43 46 49 52 55 60 64 67 70 72 74 75 77 80 85 87 88 89 90 90 91 91 94 97 98 97 96 99 103 104 103 104 104 102 100 99 97 95 95
77 64 54 47 39 32 28 24 21 19 17 16 19 25 27 27 28 28 29 31 34 37 42 45 47 48 44 38 33 29 26 22 19 15 11 9 9 10 13 17 20 23 25 26 29 32 35 38 41 45 48 51 54 58 60 62 66 68 71 73 76 82 85 84 84 85 85 86 88 89 92 95 95 95 95 98 102 105 106 106 106 103 101 100 99 99 99
75 62 53 46 38 32 27 23 21 19 16 16 21 25 26 26 27 28 29 31 34 38 42 45 47 47 44 38 33 30 26 22 20 16 11 9 9 10 12 14 18 22 24 27 31 33 35 38 41 44 47 50 52 54 56 59 63 67 70 73 76 80 81 81 82 84 85 87 88 89 92 93 94 95 95 97 101 105 107 108 108 107 105 103 102 102 101
72 60 52 45 38 32 27 23 21 19 16 16 21 23 24 25 27 28 29 32 34 37 41 45 47 47 44 38 33 31 27 23 21 18 14 11 8 9 11 12 15 19 23 27 31 33 35 38 41 43 45 48 51 53 55 59 62 64 67 70 74 78 78 79 82 84 86 88 89 91 92 92 93 95 96 97 100 104 107 110 111 110 108 105 104 104 103
69 58 51 44 37 32 28 25 24 22 19 17 20 22 23 25 26 27 30 32 34 37 41 44 46 47 44 38 33 31 29 25 22 18 15 14 10 7 9 11 14 18 23 27 30 32 34 37 40 41 42 46 49 52 55 58 60 62 65 68 72 75 76 77 80 82 85 88 89 90 90 90 93 96 97 97 100 103 107 110 111 110 109 108 106 105 104
67 56 50 44 36 31 28 26 24 23 21 20 21 22 24 24 25 27 30 33 35 38 41 43 45 46 44 38 33 31 29 26 24 20 17 15 12 8 7 9 13 17 20 24 29 32 34 36 39 41 42 44 47 50 53 56 57 60 63 67 70 72 72 75 79 81 85 88 88 88 88 90 94 96 95 96 99 102 106 108 109 109 110 110 108 106 105
65 54 48 43 36 30 27 25 23 21 21 21 22 23 24 24 24 26 30 33 35 37 41 43 44 46 43 38 32 30 29 27 24 22 20 17 12 9 8 7 11 15 17 21 25 30 33 35 38 40 41 43 45 48 51 53 55 58 62 65 68 69 71 75 78 80 83 86 85 86 89 91 93 93 94 95 99 101 104 106 107 109 111 113 112 110 108
63 53 47 41 36 31 27 23 21 20 20 20 22 24 24 24 24 25 29 33 35 37 40 42 44 45 43 38 32 30 29 27 24 22 21 18 13 10 10 8 9 13 16 18 22 26 30 34 36 38 40 42 43 46 49 51 54 57 59 62 64 67 70 74 75 77 81 83 84 85 89 91 91 92 94 96 99 102 104 106 108 110 112 114 114 113 112
62 53 46 41 35 31 27 23 21 20 19 20 22 24 24 24 25 25 28 32 35 37 39 41 43 44 43 38 32 29 29 27 24 22 21 19 16 14 12 10 8 10 12 16 19 21 25 29 33 36 39 40 42 44 47 49 52 55 58 60 62 65 69 72 73 75 78 82 83 84 86 89 91 92 94 96 100 102 104 105 108 110 113 114 115 115 114
60 51 46 40 35 31 27 24 22 20 19 19 22 24 24 25 25 26 28 32 35 36 38 40 42 44 43 39 32 28 28 25 22 21 20 19 18 17 15 13 10 9 10 13 16 18 21 25 29 35 38 39 42 45 47 49 52 54 57 59 61 64 67 69 71 73 77 80 81 81 84 88 91 91 92 95 97 100 102 105 108 110 113 115 115 116 116
58 50 45 40 35 30 27 24 21 19 18 19 22 24 24 25 26 27 29 32 35 36 37 39 42 43 43 38 31 27 27 24 21 20 17 16 18 17 17 16 13 10 9 10 12 15 20 24 28 32 35 37 41 46 49 51 52 53 56 58 61 63 65 67 70 72 75 77 79 80 84 87 89 89 90 93 95 98 101 105 108 110 112 114 116 116 117
55 48 44 40 34 30 26 23 20 19 18 20 22 24 25 26 27 28 30 32 34 36 38 39 41 42 41 38 31 28 27 24 21 20 17 16 16 16 16 17 16 13 11 10 11 14 18 22 25 30 34 36 39 43 46 49 52 54 57 59 60 63 64 66 69 71 73 75 77 80 84 86 87 87 88 90 93 96 100 104 107 108 110 113 116 117 118
53 47 43 39 34 29 26 24 21 19 19 20 22 24 25 26 27 28 30 32 33 35 37 39 40 40 41 39 33 29 28 24 22 23 22 18 17 16 16 16 15 14 13 12 11 13 16 19 23 27 31 34 37 39 42 47 52 55 57 59 61 63 65 66 68 70 72 74 76 80 83 84 85 86 87 89 92 95 98 102 105 106 108 111 115 117 118
51 45 42 38 34 29 26 24 22 20 20 21 22 24 25 26 27 28 31 32 33 35 38 39 39 40 41 40 35 30 29 25 23 25 24 19 19 19 18 17 15 14 14 13 13 14 15 18 20 24 28 32 36 39 43 47 50 53 57 60 62 63 65 67 69 71 72 73 75 79 82 82 83 85 86 88 91 93 96 100 103 105 107 109 112 115 116
50 45 41 38 34 30 26 25 23 21 21 22 23 24 25 26 27 28 31 32 32 35 38 38 39 40 40 39 36 33 31 28 27 28 25 21 21 22 20 18 16 14 12 13 14 16 16 17 20 23 26 30 34 38 41 44 48 52 56 59 61 63 65 67 69 71 73 74 76 79 80 80 81 82 84 87 89 91 94 97 100 103 105 107 110 112 114
48 44 40 37 35 30 27 25 24 22 22 22 24 25 25 26 27 29 31 32 33 36 37 37 39 40 39 38 36 33 32 32 32 32 28 24 24 24 22 20 17 14 13 13 15 17 18 19 21 23 26 29 32 36 38 41 45 50 54 58 61 63 65 68 70 72 73 75 76 78 79 79 80 80 81 84 87 90 92 95 97 99 101 104 106 109 111
47 44 40 37 35 31 28 26 25 24 22 22 24 25 25 26 28 29 31 33 34 36 37 37 39 39 38 38 36 33 33 35 35 34 30 28 27 26 23 20 18 17 16 14 13 16 19 20 21 23 25 27 30 34 37 40 43 46 50 55 60 62 64 68 71 72 74 76 77 79 80 80 80 80 81 84 86 87 90 92 94 96 97 99 103 105 108
47 43 40 38 35 31 29 27 25 24 23 23 24 25 25 26 27 29 32 33 35 37 38 38 38 38 38 38 36 33 35 37 36 35 33 30 30 30 26 21 19 19 18 15 15 18 21 22 23 24 26 27 29 32 36 39 41 43 45 50 55 58 64 68 70 71 73 76 77 79 80 80 80 81 82 84 84 86 88 90 92 93 93 96 100 103 105
46 43 40 37 35 32 29 27 26 24 23 23 24 25 25 26 27 29 31 33 35 37 39 40 39 38 38 38 36 35 37 38 38 37 36 34 35 34 28 23 21 21 20 18 18 19 20 21 22 24 26 29 30 32 35 38 40 42 44 47 49 53 60 66 67 69 72 75 76 77 79 80 81 82 83 84 84 85 87 89 89 90 92 95 98 101 102
46 43 40 37 35 31 28 27 26 24 23 24 24 25 26 26 27 29 30 32 34 36 38 40 39 37 37 37 36 37 39 40 40 40 38 37 38 34 28 26 27 26 22 20 21 21 20 21 23 25 27 29 31 33 34 37 38 40 42 45 47 50 56 61 63 66 71 74 75 76 79 80 81 82 83 84 85 84 86 88 89 90 92 94 96 98 99
46 43 39 36 34 31 28 26 25 24 23 23 24 25 25 26 28 29 31 33 34 36 39 40 38 36 38 37 36 37 39 41 43 42 39 38 37 34 33 33 32 27 23 23 26 27 25 25 26 27 28 29 30 33 34 36 36 37 39 43 46 50 54 57 59 63 67 70 72 74 77 78 79 80 82 84 84 84 86 89 90 90 91 92 94 96 97
46 42 39 36 33 30 27 25 24 23 23 22 23 24 25 26 28 30 32 34 35 37 40 40 37 37 38 37 36 37 39 42 44 42 39 39 39 39 38 37 33 29 28 30 31 31 29 28 28 29 30 30 30 32 34 35 35 36 38 41 44 49 53 56 57 59 63 66 68 72 75 76 77 79 81 83 83 84 87 89 90 91 91 92 93 95 96
46 42 38 35 33 30 26 24 23 22 21 21 22 23 24 26 28 30 32 34 36 38 40 40 40 39 38 37 38 38 39 42 44 41 39 42 44 43 41 38 35 35 35 35 34 32 30 29 28 29 30 30 29 31 34 35 35 36 38 41 44 48 51 53 55 57 58 61 64 68 71 73 75 77 81 82 82 83 86 89 91 92 92 92 94 95 95
46 42 38 34 32 29 25 22 22 20 19 20 21 21 23 26 28 31 33 35 37 39 40 41 41 39 37 37 37 37 38 42 42 40 42 46 46 45 44 41 38 37 37 35 34 33 32 31 30 29 29 29 28 30 33 35 35 36 39 42 44 46 48 51 53 55 56 58 60 62 66 70 72 75 78 80 81 82 85 88 90 91 92 92 93 95 96
46 41 37 33 30 27 23 21 20 19 19 19 19 20 23 26 28 32 34 35 38 40 41 42 42 39 36 35 34 35 39 42 41 42 47 48 46 45 47 45 40 38 37 35 34 34 33 33 31 30 30 28 27 30 33 34 35 36 38 40 42 44 46 48 51 53 55 56 57 59 62 65 66 69 73 77 79 81 84 86 88 89 90 91 93 95 96
45 40 35 31 28 25 21 19 18 18 19 19 19 20 22 26 29 32 34 36 39 41 41 42 42 38 36 36 34 35 40 43 44 46 49 48 47 48 48 45 40 38 35 33 33 33 33 31 30 30 30 28 27 29 32 34 35 35 36 37 40 43 45 46 48 51 53 54 56 59 61 61 61 64 69 73 75 78 81 84 86 86 88 90 92 93 95
44 38 32 28 25 22 19 17 17 18 18 18 19 20 23 27 30 32 35 37 40 41 42 42 39 36 36 37 35 36 41 46 48 50 50 49 49 50 47 43 40 37 35 34 33 32 31 30 29 28 29 29 28 28 30 32 34 34 35 37 39 42 43 44 47 50 50 51 55 59 61 60 61 64 67 70 71 73 77 81 84 84 86 89 91 92 93
39 33 28 24 22 19 17 16 16 17 17 18 19 21 25 28 31 33 36 38 40 41 42 40 37 36 37 36 36 38 44 49 52 52 51 50 50 48 44 42 40 38 37 36 33 31 30 30 28 28 29 29 28 27 28 30 33 35 36 37 38 40 41 43 46 49 50 52 55 59 60 61 63 65 67 68 68 69 72 76 78 80 83 87 90 91 91
34 28 23 21 19 16 14 14 15 16 16 17 19 22 26 30 32 35 37 39 40 40 38 36 36 36 36 37 41 45 48 51 53 52 51 51 50 47 43 42 41 38 36 34 33 32 30 28 27 26 27 27 27 26 26 28 31 33 35 36 38 40 43 44 46 49 52 54 57 58 58 60 63 65 66 67 67 67 68 71 73 75 78 82 86 88 90
28 23 19 17 15 13 12 14 14 14 15 16 20 24 28 31 33 36 38 39 40 38 34 33 35 35 34 39 46 49 51 53 55 53 52 51 49 46 44 42 39 37 34 32 33 33 30 26 24 25 24 24 25 26 26 27 30 32 33 36 39 42 44 45 46 49 52 55 55 56 56 58 61 63 65 66 66 65 66 68 70 71 72 76 80 84 86
23 18 16 14 11 11 11 12 13 13 14 17 21 25 29 32 35 37 38 39 38 35 33 34 35 35 37 44 49 50 53 57 56 55 55 53 48 45 44 41 38 36 34 33 33 33 30 25 23 23 23 24 26 27 28 30 32 34 36 38 40 41 43 45 47 50 52 52 53 54 54 56 58 60 62 63 63 63 64 66 68 69 70 72 75 78 80
18 15 13 10 9 10 10 11 11 13 15 19 23 27 30 33 36 37 38 37 35 33 32 34 36 37 41 46 49 52 57 59 57 56 56 53 48 46 44 40 38 37 36 33 32 31 30 27 23 22 23 25 27 29 31 32 33 34 36 38 39 41 44 46 48 51 52 52 52 53 54 56 58 59 59 60 61 61 62 64 66 67 69 71 72 74 77
13 11 9 8 8 8 9 9 10 13 17 21 25 28 32 34 36 37 37 35 32 31 32 35 38 42 46 48 52 57 61 60 58 58 56 52 50 48 45 42 40 38 36 34 32 30 29 27 24 22 23 26 28 30 31 31 32 33 35 36 37 40 43 45 47 50 51 51 52 53 55 57 58 57 58 58 59 60 61 62 64 66 68 70 71 73 74
9 7 7 7 7 7 7 8 11 15 19 23 27 30 33 34 35 36 34 31 30 31 33 37 43 48 50 51 55 60 62 62 61 59 55 51 50 49 46 44 42 39 37 35 33 30 28 26 23 21 23 26 28 29 29 30 30 32 34 35 36 38 40 42 45 47 48 49 51 54 56 57 57 56 57 57 58 59 60 61 62 64 67 68 70 72 72
5 5 5 5 5 5 6 9 13 18 21 25 28 31 33 33 33 31 29 30 33 35 36 40 47 52 53 54 56 60 63 63 61 56 53 51 50 48 46 43 42 40 38 37 34 30 28 26 24 22 23 25 27 28 29 29 29 31 33 34 34 36 38 40 42 44 45 46 49 51 52 54 55 55 55 55 56 57 58 59 60 62 65 67 68 69 70
4 4 3 3 3 5 8 12 16 20 23 26 29 31 32 31 29 26 25 30 36 37 37 43 51 56 56 57 58 60 63 63 58 54 51 51 49 47 45 44 41 39 38 37 35 32 29 27 25 24 25 26 27 28 29 29 29 30 31 33 34 35 36 38 41 42 43 44 46 47 48 49 51 53 54 54 54 55 57 57 58 59 62 64 65 65 67
3 2 1 2 4 7 11 15 19 22 25 27 30 31 30 29 27 25 26 31 36 38 39 45 52 57 58 59 60 62 63 61 56 51 50 49 48 46 45 44 42 41 39 37 35 33 31 29 27 25 25 26 27 27 28 29 29 30 31 32 33 34 35 37 39 41 42 42 43 44 45 46 49 51 52 52 53 54 55 56 56 57 59 61 62 62 62
2 1 1 3 7 11 15 18 21 24 26 28 29 28 27 27 27 28 30 32 36 39 42 47 54 58 60 61 62 64 63 57 52 50 50 49 47 45 43 42 41 40 39 37 36 34 33 32 29 28 28 28 28 28 29 29 29 30 32 32 33 33 34 36 38 40 41 41 41 42 44 45 47 48 49 51 52 53 54 54 54 54 55 57 59 58 58
3 2 3 6 10 14 17 20 22 24 26 26 26 25 25 26 27 29 32 33 35 38 44 50 56 61 62 61 63 64 59 52 48 49 50 48 46 44 41 40 39 37 36 35 35 34 33 33 31 30 30 29 28 28 29 29 30 30 31 32 32 33 34 36 37 39 40 40 40 40 42 44 45 46 47 50 52 51 50 50 51 51 52 54 56 56 54
3 3 6 10 13 16 18 21 22 23 23 23 23 23 23 25 27 30 32 33 35 39 45 53 58 61 62 62 63 61 54 48 46 48 49 48 46 42 39 39 39 37 36 35 35 34 33 32 32 32 32 31 30 28 27 28 30 30 30 31 31 32 33 35 36 37 38 39 39 39 40 42 44 45 46 48 49 47 46 47 49 50 50 52 55 54 51
4 7 10 13 15 17 20 21 21 20 20 21 21 22 24 27 29 31 34 36 38 43 50 56 58 60 62 62 61 57 51 47 48 49 48 47 45 42 39 38 38 37 37 36 35 35 34 34 34 35 34 34 33 31 28 27 28 28 29 30 30 30 31 32 33 34 36 37 38 38 38 39 42 44 45 46 46 44 44 45 47 48 49 51 53 52 50
8 10 13 15 17 19 20 20 18 18 19 20 20 21 25 29 30 32 35 39 42 47 53 55 57 59 62 61 56 52 49 47 48 49 48 46 43 41 39 38 37 37 37 36 36 36 36 36 36 36 35 34 33 31 30 28 27 27 27 28 28 29 30 30 31 32 33 35 37 37 37 38 40 42 43 44 43 42 42 44 46 46 47 49 49 50 51
11 12 14 17 19 19 17 16 16 17 17 18 19 21 25 28 31 34 38 41 45 49 53 54 56 59 60 56 52 50 49 48 48 49 48 45 42 41 39 38 37 37 37 37 37 37 36 36 36 35 35 34 32 30 29 28 27 26 26 26 27 27 28 29 29 29 30 32 34 35 36 36 38 39 40 41 40 40 41 44 44 44 45 46 47 49 52
12 14 17 19 18 15 13 14 16 16 14 16 19 23 26 29 33 37 40 42 45 50 53 54 55 56 56 54 53 52 50 49 49 49 48 45 43 41 40 40 39 37 36 36 36 36 36 35 35 34 33 32 31 29 28 27 26 26 26 26 26 26 26 27 27 27 27 29 31 33 33 34 35 36 37 38 38 38 40 42 44 44 44 45 46 48 50
14 17 18 17 14 12 12 15 17 16 15 17 20 24 27 32 37 39 41 42 46 50 52 53 54 54 53 54 54 53 51 49 49 49 48 46 44 42 42 42 41 40 38 37 36 35 35 34 34 33 32 30 28 27 26 24 23 24 24 25 25 25 25 25 25 24 25 26 28 29 30 32 33 34 34 34 34 35 37 40 42 44 44 44 44 45 47
17 17 15 13 12 13 15 16 16 16 16 18 20 23 29 35 39 40 41 43 46 49 51 52 52 53 55 55 55 54 52 50 49 49 48 47 45 43 43 43 42 41 40 39 37 37 36 35 34 33 31 29 27 26 24 23 22 21 21 22 22 22 23 23 23 23 23 23 25 26 27 29 31 31 31 30 31 32 34 36 40 42 43 43 42 42 43
Wind_Direction
343 341 340 339 338 338 337 335 331 329 329 331 335 339 333 328 331 333 334 336 338 338 339 341 342 343 344 343 342 340 335 328 315 294 273 253 237 228 224 222 220 220 217 217 217 216 217 217 216 216 216 216 216 216 217 218 219 219 219 219 220 218 217 216 215 217 218 215 215 216 216 217 217 216 218 220 221 221 219 217 218 218 221 223 223 222 223
343 342 340 339 339 338 337 334 330 330 335 337 343 343 335 329 331 334 337 340 341 340 342 343 345 345 345 344 344 343 339 334 323 304 281 258 240 229 223 220 221 221 217 216 216 216 218 218 218 218 217 216 215 215 216 218 219 220 220 220 220 220 219 217 216 217 218 215 215 217 217 216 216 216 216 217 219 220 220 220 220 220 220 222 223 223 224
344 342 341 339 339 338 337 333 329 333 337 337 344 344 337 331 333 338 342 343 342 342 344 345 346 346 346 346 345 344 342 338 329 312 289 263 243 232 225 221 220 222 220 217 215 215 217 218 218 218 218 217 216 215 216 217 219 220 221 220 220 220 220 219 217 218 218 215 214 216 217 216 216 216 216 217 218 219 220 222 223 223 224 225 223 222 223
344 342 341 340 339 339 337 333 330 334 332 328 342 346 338 333 336 339 342 343 343 343 345 346 347 348 348 347 346 345 344 340 333 320 299 271 247 233 228 224 221 222 222 220 217 215 215 217 217 217 217 217 216 215 216 216 218 219 219 219 219 219 219 218 218 219 219 217 215 216 217 217 217 217 216 218 219 219 219 220 221 223 226 227 226 224 223
344 343 341 340 339 339 336 331 330 330 324 324 341 345 339 335 335 337 341 343 342 344 347 348 349 349 349 349 346 345 345 342 336 325 307 282 256 237 228 225 223 220 221 223 223 219 217 217 217 216 215 214 214 214 215 215 216 217 218 218 219 219 219 219 218 218 219 218 216 217 217 217 218 218 217 217 218 218 218 219 220 221 224 226 226 226 225
344 343 342 341 340 338 334 330 329 328 321 325 342 345 339 335 334 337 343 343 343 346 349 350 351 351 351 350 348 347 346 344 340 330 313 291 263 243 230 225 223 220 218 218 221 221 220 218 217 216 215 213 212 213 214 215 215 216 216 217 217 218 220 220 219 218 217 217 216 216 217 217 219 220 218 218 218 218 217 219 220 221 222 224 224 225 226
344 343 342 341 340 338 333 330 329 326 320 327 343 343 338 335 334 338 343 344 344 348 350 351 352 352 351 350 349 349 347 344 342 336 321 300 272 248 236 228 222 222 222 218 216 218 219 219 218 216 215 212 211 211 213 214 215 215 215 216 215 217 218 219 219 218 218 217 216 216 217 218 219 220 219 219 219 219 218 219 220 221 222 224 223 223 224
344 343 343 342 341 338 332 329 328 323 318 328 341 339 335 334 335 338 343 343 345 349 352 353 353 353 352 351 350 350 349 345 342 340 331 310 283 256 242 234 226 222 221 218 217 217 217 216 217 217 214 212 211 211 212 214 214 214 215 214 214 216 217 218 219 219 219 219 218 218 219 219 218 218 218 219 220 219 218 219 220 221 222 223 223 223 224
344 343 342 342 341 338 332 328 325 320 316 329 337 333 331 333 336 339 341 343 347 351 353 353 353 353 353 351 350 351 351 349 346 345 342 323 296 270 250 238 230 225 221 218 218 220 219 216 217 218 215 214 212 210 211 213 213 213 214 213 214 215 216 217 218 219 219 219 218 218 219 220 219 218 218 219 220 220 219 219 220 220 220 221 222 223 224
344 343 342 342 341 337 332 325 320 315 313 323 330 327 328 334 337 339 341 343 347 351 353 354 354 354 353 351 350 352 353 354 352 349 344 335 315 285 262 244 231 227 224 222 221 221 221 220 220 220 218 216 214 211 211 212 212 213 214 214 215 215 215 215 217 218 219 219 218 218 219 219 220 219 218 219 220 221 220 220 220 220 220 221 222 223 224
343 342 341 341 339 336 331 324 319 315 310 313 320 324 329 335 338 341 342 343 347 351 353 354 354 353 353 351 350 351 353 354 355 354 347 340 331 304 273 250 236 229 224 223 223 222 222 222 222 222 220 218 217 214 213 213 212 212 213 214 216 216 215 216 217 218 219 219 218 218 219 219 220 219 218 218 220 221 221 220 220 221 221 221 222 223 224
342 341 340 340 338 335 330 325 321 316 309 310 318 325 330 335 339 342 342 343 347 351 352 353 353 353 354 352 350 352 353 353 353 355 353 347 339 324 294 255 243 241 232 225 224 224 223 222 223 224 223 221 219 217 216 215 214 213 214 215 216 215 215 216 217 218 219 219 218 218 219 219 221 220 219 219 220 221 222 221 221 221 222 222 222 223 224
341 340 339 338 336 334 331 325 320 313 307 311 320 325 329 334 339 342 341 342 347 350 351 352 353 353 353 352 351 351 353 353 351 353 355 352 344 334 319 280 251 249 244 232 226 225 225 224 224 224 224 223 222 220 219 217 215 215 216 216 216 215 215 217 218 219 220 220 219 219 219 219 220 221 220 220 221 221 222 222 221 221 222 223 222 222 223
340 339 339 337 334 332 330 324 316 309 306 312 320 324 328 333 337 340 340 342 347 349 350 351 352 352 353 353 352 353 354 353 352 351 353 353 349 339 329 311 272 254 248 240 233 229 227 227 226 225 226 225 224 223 222 220 218 217 218 217 217 216 216 217 218 219 221 221 219 220 221 220 220 220 220 220 221 221 221 221 221 221 222 223 223 222 222
339 338 338 337 333 330 327 321 313 306 307 314 320 323 327 331 334 337 338 340 344 348 349 350 351 351 352 353 354 354 353 353 351 352 354 353 349 342 334 323 298 271 253 243 238 234 231 229 227 226 227 226 226 225 224 223 221 219 219 219 218 218 218 219 218 219 222 222 220 220 222 222 221 220 221 221 221 221 221 222 221 221 222 223 223 223 223
338 337 337 337 333 329 324 318 312 308 309 314 318 321 326 330 332 335 336 338 342 345 347 349 350 350 352 353 354 354 353 351 350 353 355 351 346 343 339 331 314 291 268 249 240 235 233 231 228 226 226 226 225 225 225 224 223 222 221 220 220 219 220 220 220 220 222 222 221 221 223 223 222 221 221 222 223 222 222 222 222 222 222 223 223 224 223
336 335 336 336 333 328 323 317 312 309 310 313 317 321 325 328 331 333 335 337 340 343 345 348 349 350 351 353 353 352 352 351 349 352 353 345 341 342 341 337 326 307 287 264 247 237 232 232 230 227 226 226 226 225 224 224 224 223 222 222 221 221 221 221 221 221 222 223 222 221 223 224 223 222 222 223 223 223 223 223 223 222 222 223 224 224 224
335 334 334 334 332 327 322 316 311 308 308 311 316 321 325 327 330 333 334 336 339 342 344 347 348 349 350 352 351 349 351 351 349 350 348 340 341 343 340 338 332 319 304 285 262 246 237 235 233 229 227 229 230 228 226 225 224 224 224 223 222 222 222 222 222 223 223 224 224 223 224 224 223 222 223 224 224 224 225 224 224 223 224 224 224 224 225
333 332 333 332 330 325 319 314 309 305 306 309 314 320 324 327 330 331 333 335 339 342 343 345 346 347 348 350 350 349 349 350 347 348 346 343 343 341 336 336 334 324 314 300 279 262 247 241 238 232 229 231 232 230 227 226 225 225 224 224 224 223 223 223 223 224 224 224 225 226 225 225 224 223 223 224 225 226 226 226 225 224 224 225 225 225 225
331 331 331 330 328 323 316 311 305 303 305 308 313 319 322 325 328 330 332 335 338 342 343 344 345 346 346 348 348 348 349 349 345 345 346 343 341 339 336 334 330 324 318 306 289 278 263 248 243 237 232 230 231 230 228 226 226 226 225 225 225 224 224 225 225 225 225 225 226 227 227 226 226 225 224 225 226 226 227 227 226 225 225 226 226 226 226
330 330 329 328 326 321 314 309 303 301 304 307 312 317 320 323 326 329 332 335 338 342 344 343 343 343 344 345 346 345 347 348 345 344 344 340 338 338 337 333 326 322 321 311 297 290 280 263 253 246 238 234 232 231 230 228 227 227 226 226 226 225 225 226 226 226 227 226 227 228 229 228 228 227 226 226 227 228 228 228 228 227 226 226 227 227 227
329 328 328 327 324 319 313 307 301 299 302 305 309 315 318 322 325 329 332 334 337 341 343 341 341 341 342 343 344 343 344 346 344 343 343 340 338 337 335 334 329 320 317 313 301 291 281 270 262 254 246 241 238 235 233 231 229 229 228 228 227 226 226 226 226 227 227 228 228 229 229 229 229 228 228 228 229 229 229 229 229 229 228 227 228 228 229
328 327 326 325 323 318 311 306 302 298 298 301 306 311 317 321 325 329 332 334 336 340 342 340 339 340 340 341 341 341 343 343 343 342 342 339 338 336 333 330 325 316 310 306 299 290 279 271 268 262 255 250 244 240 237 234 230 229 230 230 228 227 227 228 227 227 228 228 228 229 229 230 229 229 229 229 229 230 230 230 230 230 229 229 229 229 229
326 326 325 323 321 317 309 305 303 298 295 297 302 308 314 319 324 328 331 333 336 339 341 339 337 338 338 338 338 339 342 342 341 341 340 337 336 334 328 322 320 317 310 299 291 288 283 277 272 267 261 256 249 243 241 238 233 230 230 231 229 227 228 229 229 228 229 230 229 230 230 230 230 230 230 230 230 231 231 231 231 231 230 231 230 229 229
325 325 324 321 320 316 308 304 303 299 295 294 297 304 311 317 322 327 330 332 335 338 339 338 337 337 336 336 335 335 338 340 340 340 339 337 334 332 327 322 321 319 314 304 295 290 284 278 275 270 265 259 254 248 244 241 238 234 232 232 231 229 230 230 230 229 230 231 231 231 231 231 230 230 231 230 230 231 232 232 232 232 231 232 232 231 230
324 324 322 320 318 314 307 302 301 300 296 292 294 300 308 315 321 325 328 330 333 336 337 337 336 335 334 333 332 331 333 336 338 339 338 337 335 332 329 325 323 319 314 309 304 295 282 273 271 271 268 262 257 252 247 243 241 238 235 234 232 231 231 231 231 230 230 231 231 231 232 232 231 231 231 231 231 231 232 233 233 232 232 232 233 233 232
323 323 321 319 316 313 306 300 299 301 299 294 292 297 305 313 320 324 327 329 332 335 336 336 334 333 333 332 329 328 331 333 335 336 336 336 335 332 328 325 323 318 313 309 306 299 287 275 269 268 268 265 258 253 250 246 243 241 239 236 234 233 233 232 231 230 230 231 231 232 233 233 233 232 232 232 231 231 232 233 233 233 233 233 233 233 233
322 322 320 317 315 311 305 298 298 301 301 296 293 296 304 313 319 323 326 329 331 334 335 335 333 332 332 331 326 326 329 332 333 334 336 336 334 331 328 326 322 317 313 310 305 300 292 282 273 269 268 265 258 253 252 251 248 244 242 239 237 236 236 235 233 232 231 230 230 231 232 234 234 234 234 233 232 232 232 233 234 233 233 233 234 234 234
321 320 318 315 313 309 303 296 297 301 301 297 295 297 304 313 319 324 326 328 331 333 334 333 332 332 332 331 327 325 328 331 332 333 335 334 331 328 328 326 321 316 314 310 304 299 292 285 278 274 271 265 257 252 251 251 249 246 243 241 239 238 238 238 237 236 234 232 231 231 231 232 232 234 234 233 232 232 232 233 234 233 233 233 234 234 234
320 319 317 313 310 307 300 294 296 300 298 296 295 299 307 315 320 324 326 327 330 332 331 331 331 332 332 331 327 325 328 331 331 330 330 330 329 327 327 325 320 316 313 308 302 298 295 291 288 283 276 270 263 257 254 252 250 247 244 242 241 239 238 238 238 237 237 235 234 233 232 232 232 233 234 234 233 233 233 234 235 235 234 234 234 235 235
318 317 314 310 307 304 296 292 294 296 294 294 296 301 311 318 321 324 325 327 330 330 329 329 330 330 331 331 327 324 327 330 329 327 328 328 328 327 324 322 319 316 313 308 303 300 297 294 291 286 279 272 265 260 258 255 252 249 246 244 243 242 240 238 238 238 237 237 236 235 235 234 234 234 235 235 234 234 234 235 235 236 236 235 235 235 236
316 314 311 307 303 299 293 289 291 291 290 292 297 305 313 319 321 323 324 327 329 329 328 329 330 330 331 332 328 324 326 328 328 328 328 327 326 325 323 322 321 319 314 309 305 302 298 294 290 284 278 272 265 259 257 255 253 251 249 247 245 244 242 241 240 239 238 237 236 237 237 236 234 234 235 235 234 234 234 235 235 235 236 236 236 236 236
315 311 307 302 299 294 288 286 287 288 289 292 300 309 316 320 321 323 325 327 328 328 328 329 330 329 329 331 331 329 327 327 327 327 327 325 325 325 324 324 323 320 314 309 306 304 300 295 290 285 279 273 266 259 255 254 253 252 250 247 245 244 243 242 242 242 241 239 237 237 237 237 235 234 235 235 235 234 234 235 235 235 235 237 237 236 236
313 308 302 297 293 288 284 282 285 287 289 296 306 314 319 321 321 323 325 326 327 329 330 329 329 329 329 331 331 329 327 327 326 326 327 327 326 326 325 324 323 319 315 312 310 308 303 298 293 287 281 276 270 262 256 253 252 251 250 249 248 247 245 242 241 242 243 242 240 238 237 237 237 237 237 237 236 235 235 235 235 234 234 236 237 237 237
312 305 296 290 287 283 279 280 284 286 291 301 312 317 319 321 322 324 325 326 327 330 331 331 330 330 330 329 328 327 326 328 328 328 329 329 329 327 325 324 323 319 315 314 313 310 306 302 298 290 282 278 275 269 262 255 251 250 249 249 247 246 244 242 240 240 240 240 241 240 239 238 239 240 240 240 238 237 237 237 237 235 235 236 237 238 237
310 301 290 284 281 276 275 279 283 288 295 306 315 318 320 322 323 324 325 327 328 331 332 331 330 329 327 327 327 327 327 330 331 331 331 331 330 328 326 325 323 320 319 319 316 310 305 304 301 293 284 277 272 266 260 255 251 248 246 245 244 245 244 244 243 242 241 241 242 243 242 241 241 241 242 243 242 240 239 239 239 237 236 236 237 238 238
306 293 284 279 273 269 273 280 286 292 303 312 317 320 321 323 323 324 326 327 328 330 330 330 331 330 328 327 329 330 330 332 334 333 332 332 331 329 328 328 327 325 324 322 318 312 308 307 303 295 287 279 269 262 256 251 247 244 242 241 241 241 242 242 242 243 243 243 243 244 244 243 243 242 243 244 244 243 241 241 240 240 238 238 238 239 239
299 287 279 271 264 266 275 284 291 300 310 317 320 322 323 323 324 325 326 328 330 330 330 330 332 330 328 328 332 333 334 335 335 334 333 332 332 332 331 330 329 328 326 323 319 314 311 309 304 295 287 278 270 265 262 258 256 253 250 247 244 242 241 241 240 241 241 241 241 242 243 243 243 242 242 242 242 242 242 241 241 241 240 239 239 239 239
291 280 269 259 260 271 281 291 301 309 316 321 322 323 323 323 324 325 327 330 332 331 329 329 330 330 331 333 335 336 336 336 335 334 334 333 333 333 333 332 332 331 328 325 322 317 312 310 306 299 290 281 275 272 269 267 265 263 260 256 252 248 246 245 243 243 243 242 241 241 241 242 242 242 241 241 241 241 241 240 239 240 240 240 240 240 239
281 268 255 254 266 281 292 302 311 317 322 324 323 322 322 323 325 328 330 333 333 331 327 328 332 335 336 336 335 335 336 336 335 334 334 334 334 334 333 333 333 332 330 328 325 320 316 312 307 298 289 283 280 278 274 271 267 264 261 260 257 254 252 251 249 248 248 246 244 243 243 243 243 242 241 241 241 241 240 240 239 239 240 240 240 240 240
263 247 245 258 279 294 305 314 319 322 324 322 320 321 323 325 329 334 335 333 333 332 330 332 336 339 339 336 335 335 335 335 334 334 335 335 334 334 333 332 332 333 332 329 326 323 319 314 308 301 293 288 285 283 280 276 272 268 266 265 262 259 257 255 254 253 252 250 248 247 247 247 247 247 245 243 242 242 241 240 239 239 240 240 240 240 240
235 232 246 275 303 311 318 323 325 324 322 320 320 323 326 328 332 337 335 329 330 332 332 334 338 340 338 336 335 334 335 335 335 335 335 334 334 334 333 332 332 333 332 329 326 325 321 316 312 308 302 297 293 289 285 281 278 273 270 267 264 261 259 257 256 255 254 252 251 250 249 249 249 250 249 248 246 245 244 243 241 241 242 243 242 242 241
215 225 279 324 321 323 327 328 326 323 321 322 324 326 328 330 334 338 335 332 332 334 333 334 337 338 337 335 335 335 336 336 336 334 334 335 336 336 334 333 333 333 332 330 328 327 324 320 316 311 305 300 295 290 286 284 280 277 273 269 266 263 261 259 258 257 255 253 251 250 249 248 247 248 249 249 248 247 247 246 244 243 244 245 245 245 244
159 90 11 330 325 329 331 328 324 322 323 325 328 331 334 337 340 340 339 338 336 333 332 333 335 336 335 334 335 336 337 336 335 334 336 338 338 337 335 333 332 332 331 330 329 327 325 322 320 314 308 304 299 295 291 288 283 279 275 272 268 265 262 259 258 257 257 255 252 250 249 249 247 247 247 248 247 246 246 247 247 246 246 246 247 246 246
104 66 343 331 332 332 329 324 322 324 327 332 338 341 343 343 343 342 341 338 333 330 331 333 334 334 334 335 335 336 336 336 335 337 339 339 339 337 334 332 331 331 331 331 330 328 325 323 320 315 310 307 304 300 297 293 288 283 278 274 270 267 264 262 260 259 259 258 255 252 250 249 249 247 246 247 248 247 246 247 248 248 248 248 249 248 247
78 358 339 335 332 329 325 323 325 330 336 343 348 351 350 347 344 341 340 336 330 329 331 332 332 333 335 335 335 335 336 337 339 341 341 340 338 336 334 332 332 333 333 333 331 329 326 324 322 320 317 314 311 307 301 295 291 286 283 279 275 271 267 265 263 262 262 261 259 256 252 251 251 250 248 248 249 250 248 246 246 246 246 247 249 249 247
9 347 340 334 330 328 326 325 329 338 348 353 355 355 353 350 346 341 337 335 332 330 330 330 331 334 336 335 335 336 338 341 343 344 343 341 338 336 335 336 336 336 336 335 334 332 330 329 327 324 321 318 316 312 307 300 294 289 286 283 280 276 271 268 265 263 262 262 261 259 256 253 252 252 252 251 251 250 248 247 247 246 245 246 247 248 247
351 343 337 331 329 329 328 328 336 349 359 2 0 354 350 349 345 339 335 333 331 330 330 331 333 335 335 335 336 339 342 344 345 345 343 341 340 338 338 339 339 339 339 338 337 336 335 332 329 326 322 319 317 313 309 305 300 295 290 286 282 278 276 272 268 264 262 261 260 260 258 254 252 251 252 253 252 251 249 248 247 246 245 246 247 249 248
345 339 334 330 330 332 333 338 349 1 5 2 355 349 347 347 344 338 334 332 330 330 332 334 334 334 334 337 341 343 345 345 346 345 344 343 342 342 341 342 343 343 343 342 341 339 337 333 329 326 323 321 318 315 312 309 306 301 296 291 286 282 279 275 271 268 264 262 261 260 258 256 254 252 252 253 252 251 249 249 248 247 246 245 246 247 248
338 334 331 330 331 335 338 343 353 2 6 358 349 345 344 344 341 336 333 332 332 333 335 335 333 333 336 341 345 346 347 347 347 346 345 345 346 345 345 346 346 347 347 346 344 341 338 334 331 328 325 323 320 317 315 313 309 305 301 296 291 287 283 278 275 271 267 263 261 260 259 258 256 254 253 253 252 249 248 248 249 248 247 245 245 246 249
335 333 331 332 337 345 351 352 356 2 3 356 349 345 343 341 338 335 333 332 333 335 336 333 332 335 342 346 347 347 348 348 347 347 347 347 348 349 350 350 349 348 348 348 346 344 341 338 335 331 329 326 323 320 317 315 311 307 303 300 295 291 287 282 279 275 269 265 262 261 259 258 257 256 254 252 251 249 247 247 248 249 249 248 247 247 250
335 332 333 341 355 5 6 3 1 1 358 353 346 341 340 340 339 336 333 333 334 335 334 333 336 342 346 347 346 347 348 348 347 347 347 348 349 351 352 352 351 350 350 349 349 347 345 343 339 335 332 330 328 326 324 322 319 313 308 303 299 294 290 286 282 277 272 267 264 261 259 257 257 258 256 253 250 249 247 246 247 248 250 251 251 251 251
Height
10703 10692 10684 10677 10672 10668 10664 10661 10658 10656 10654 10652 10651 10649 10647 10643 10641 10639 10637 10635 10632 10629 10626 10621 10616 10610 10604 10600 10595 10591 10588 10586 10584 10582 10581 10581 10581 10582 10583 10584 10585 10587 10590 10594 10596 10599 10602 10606 10611 10617 10623 10631 10640 10649 10654 10657 10661 10666 10671 10675 10682 10697 10710 10714 10720 10723 10725 10737 10752 10761 10768 10775 10784 10793 10798 10804 10809 10814 10819 10819 10820 10825 10826 10831 10844 10854 10860
10698 10688 10680 10674 10669 10665 10662 10659 10656 10654 10652 10651 10649 10648 10645 10642 10640 10638 10635 10632 10630 10626 10622 10617 10612 10607 10602 10597 10592 10589 10586 10584 10582 10580 10579 10578 10578 10579 10580 10581 10583 10585 10587 10589 10591 10595 10600 10604 10609 10614 10620 10627 10634 10642 10647 10651 10657 10662 10668 10677 10689 10700 10702 10704 10712 10717 10722 10738 10750 10753 10759 10766 10771 10778 10784 10788 10791 10797 10805 10810 10814 10820 10822 10826 10837 10849 10857
10694 10684 10677 10672 10667 10663 10660 10657 10654 10652 10651 10649 10648 10646 10643 10639 10637 10635 10632 10630 10627 10624 10620 10615 10610 10605 10600 10595 10590 10587 10584 10582 10580 10578 10577 10576 10576 10577 10577 10578 10580 10582 10584 10586 10589 10592 10596 10601 10606 10610 10616 10622 10629 10637 10641 10646 10653 10658 10665 10675 10683 10687 10690 10697 10707 10711 10716 10729 10736 10738 10746 10753 10758 10766 10773 10775 10780 10792 10803 10811 10818 10823 10821 10821 10831 10844 10850
10690 10681 10675 10669 10665 10661 10657 10655 10652 10651 10649 10648 10646 10644 10641 10637 10634 10632 10630 10628 10626 10622 10619 10614 10609 10604 10598 10593 10589 10586 10583 10580 10578 10577 10576 10575 10575 10575 10575 10577 10578 10580 10582 10585 10586 10589 10592 10597 10601 10606 10612 10618 10625 10631 10635 10640 10645 10650 10659 10667 10671 10675 10682 10691 10699 10705 10711 10719 10725 10728 10737 10746 10753 10759 10765 10771 10779 10788 10795 10803 10811 10815 10812 10815 10828 10838 10842
10687 10679 10672 10667 10662 10659 10655 10653 10651 10649 10647 10646 10645 10643 10640 10637 10634 10632 10629 10627 10624 10621 10617 10612 10607 10602 10597 10592 10588 10585 10582 10579 10577 10575 10574 10574 10573 10573 10574 10575 10576 10578 10580 10583 10585 10588 10591 10593 10597 10601 10607 10612 10618 10624 10629 10633 10637 10643 10651 10657 10662 10671 10679 10683 10690 10696 10701 10709 10718 10725 10733 10741 10743 10744 10752 10761 10768 10777 10787 10795 10799 10799 10798 10806 10821 10832 10837
10683 10676 10670 10665 10660 10657 10654 10651 10649 10648 10646 10645 10643 10641 10638 10635 10632 10630 10628 10626 10622 10618 10614 10610 10605 10600 10595 10591 10587 10584 10581 10578 10576 10574 10573 10573 10572 10572 10572 10573 10574 10576 10577 10580 10583 10586 10588 10590 10594 10599 10603 10607 10613 10618 10622 10625 10629 10636 10643 10649 10658 10667 10670 10672 10678 10683 10687 10696 10707 10716 10723 10728 10730 10736 10750 10759 10762 10771 10782 10784 10783 10786 10790 10799 10813 10824 10830
10680 10673 10668 10663 10658 10655 10652 10650 10648 10646 10645 10643 10642 10640 10637 10634 10630 10628 10626 10624 10620 10616 10612 10608 10603 10598 10594 10590 10586 10582 10580 10577 10575 10573 10572 10571 10571 10571 10571 10571 10572 10573 10575 10577 10580 10582 10584 10588 10592 10595 10598 10603 10607 10610 10614 10619 10624 10631 10638 10644 10652 10655 10654 10659 10667 10674 10683 10693 10701 10707 10713 10717 10723 10735 10748 10755 10757 10764 10771 10771 10773 10781 10787 10794 10805 10812 10817
10677 10671 10665 10661 10657 10653 10651 10648 10647 10645 10644 10642 10640 10638 10635 10632 10629 10626 10624 10622 10618 10615 10610 10606 10601 10597 10592 10588 10585 10581 10578 10576 10574 10572 10571 10570 10569 10569 10569 10569 10570 10571 10573 10576 10577 10578 10581 10584 10586 10589 10592 10596 10600 10605 10611 10616 10621 10626 10631 10636 10641 10641 10644 10655 10665 10673 10682 10689 10695 10702 10705 10709 10718 10728 10737 10743 10746 10752 10759 10762 10767 10776 10781 10787 10795 10800 10805
10674 10668 10663 10659 10655 10652 10649 10647 10645 10644 10642 10641 10639 10637 10634 10631 10628 10625 10623 10620 10617 10613 10609 10605 10600 10596 10591 10587 10584 10581 10578 10575 10572 10571 10570 10569 10568 10568 10568 10568 10569 10570 10572 10573 10574 10575 10578 10580 10581 10584 10588 10591 10596 10602 10607 10609 10614 10618 10622 10628 10632 10633 10642 10653 10659 10665 10672 10677 10684 10690 10693 10700 10709 10717 10726 10733 10736 10740 10747 10752 10756 10762 10769 10776 10783 10789 10796
10671 10666 10661 10657 10653 10650 10647 10645 10643 10642 10641 10639 10637 10635 10632 10629 10626 10624 10621 10618 10615 10612 10608 10604 10599 10595 10590 10586 10583 10580 10577 10574 10572 10570 10568 10567 10567 10566 10566 10566 10568 10569 10570 10570 10571 10573 10576 10577 10579 10582 10586 10589 10593 10597 10600 10602 10607 10613 10618 10623 10625 10629 10638 10646 10649 10655 10661 10666 10672 10677 10682 10692 10700 10706 10716 10722 10724 10729 10737 10742 10745 10751 10760 10767 10773 10779 10788
10669 10663 10659 10655 10652 10648 10646 10644 10642 10640 10639 10637 10635 10633 10631 10628 10625 10622 10619 10617 10614 10611 10607 10603 10599 10594 10590 10585 10582 10579 10576 10574 10571 10569 10567 10566 10565 10565 10564 10565 10565 10565 10566 10567 10569 10571 10573 10574 10577 10580 10583 10586 10588 10593 10595 10598 10603 10609 10613 10616 10618 10625 10635 10639 10641 10648 10651 10654 10661 10669 10678 10686 10688 10693 10704 10712 10715 10720 10725 10729 10736 10744 10752 10759 10766 10771 10778
10667 10662 10657 10653 10650 10647 10644 10642 10640 10639 10637 10635 10634 10631 10629 10627 10624 10620 10617 10615 10613 10609 10606 10602 10598 10594 10589 10585 10582 10579 10576 10573 10571 10569 10567 10565 10564 10563 10563 10563 10563 10563 10564 10565 10566 10568 10569 10571 10574 10577 10580 10582 10585 10589 10592 10595 10600 10604 10606 10609 10613 10621 10629 10631 10633 10639 10640 10644 10655 10664 10670 10675 10677 10684 10697 10704 10707 10710 10715 10723 10734 10741 10744 10750 10759 10764 10768
10665 10660 10655 10651 10648 10645 10643 10641 10639 10637 10635 10634 10632 10630 10628 10626 10623 10620 10616 10614 10611 10608 10605 10601 10598 10594 10589 10585 10582 10578 10576 10573 10570 10568 10566 10564 10563 10562 10562 10561 10561 10561 10562 10563 10564 10565 10567 10569 10571 10573 10576 10579 10582 10585 10588 10592 10597 10599 10601 10605 10610 10616 10621 10622 10626 10631 10632 10638 10650 10656 10658 10664 10670 10678 10689 10695 10696 10700 10707 10716 10726 10731 10731 10736 10746 10751 10755
10662 10658 10653 10650 10646 10643 10641 10639 10637 10635 10634 10633 10631 10629 10626 10624 10622 10619 10616 10613 10610 10607 10604 10600 10596 10593 10589 10585 10581 10578 10575 10573 10570 10567 10565 10564 10562 10561 10560 10560 10560 10559 10560 10560 10561 10563 10565 10566 10569 10571 10574 10576 10580 10583 10585 10589 10592 10594 10597 10601 10605 10610 10613 10614 10620 10625 10627 10633 10642 10645 10648 10656 10663 10669 10676 10680 10682 10687 10693 10700 10708 10714 10717 10722 10732 10740 10746
10659 10655 10651 10647 10644 10641 10639 10637 10634 10633 10632 10631 10629 10627 10625 10623 10620 10618 10615 10612 10609 10606 10603 10599 10596 10592 10588 10584 10581 10577 10574 10572 10569 10567 10565 10563 10562 10560 10559 10558 10558 10557 10557 10558 10559 10560 10562 10564 10566 10569 10571 10573 10577 10579 10582 10585 10588 10590 10593 10596 10600 10603 10606 10609 10615 10618 10619 10624 10633 10638 10642 10647 10652 10658 10664 10667 10670 10677 10685 10691 10697 10703 10707 10712 10721 10729 10736
10656 10652 10648 10645 10642 10639 10636 10634 10632 10631 10630 10629 10627 10625 10623 10621 10619 10617 10614 10611 10608 10605 10602 10599 10595 10591 10587 10583 10580 10577 10575 10572 10569 10567 10565 10563 10561 10559 10558 10557 10556 10555 10555 10555 10556 10558 10559 10560 10562 10564 10566 10569 10571 10573 10576 10579 10582 10585 10588 10591 10594 10597 10600 10604 10609 10611 10612 10617 10626 10632 10634 10635 10641 10650 10656 10659 10662 10671 10676 10678 10683 10691 10697 10702 10710 10717 10725
10654 10649 10646 10642 10639 10637 10634 10632 10631 10629 10629 10627 10625 10623 10622 10620 10617 10615 10612 10609 10606 10603 10600 10597 10593 10590 10586 10582 10580 10577 10575 10572 10570 10568 10566 10564 10561 10559 10557 10555 10554 10553 10553 10553 10554 10555 10556 10557 10558 10560 10562 10564 10565 10567 10569 10572 10576 10579 10582 10585 10588 10591 10595 10598 10601 10604 10607 10611 10617 10622 10622 10625 10634 10645 10649 10650 10655 10660 10662 10663 10671 10681 10687 10692 10699 10706 10713
10651 10647 10643 10640 10637 10634 10632 10630 10629 10628 10627 10626 10624 10622 10620 10617 10615 10613 10611 10608 10604 10601 10598 10595 10591 10589 10586 10583 10580 10577 10575 10572 10570 10568 10566 10564 10561 10558 10556 10554 10552 10551 10551 10551 10551 10552 10552 10553 10554 10555 10558 10559 10559 10561 10564 10567 10570 10573 10575 10578 10582 10585 10588 10591 10594 10598 10601 10604 10608 10611 10612 10617 10627 10635 10639 10642 10645 10647 10648 10652 10663 10673 10678 10683 10689 10693 10698
10649 10645 10641 10638 10635 10632 10630 10628 10627 10625 10625 10623 10622 10620 10618 10616 10613 10611 10608 10606 10603 10599 10596 10593 10590 10587 10584 10581 10579 10576 10573 10571 10569 10567 10564 10562 10560 10557 10555 10553 10551 10550 10549 10548 10548 10548 10548 10549 10550 10551 10553 10554 10554 10557 10559 10561 10563 10566 10569 10572 10574 10577 10581 10584 10587 10590 10593 10597 10600 10601 10603 10610 10617 10624 10630 10632 10632 10634 10639 10646 10655 10664 10669 10672 10676 10680 10688
10647 10642 10639 10635 10632 10630 10628 10626 10624 10623 10622 10621 10620 10618 10616 10614 10611 10609 10607 10604 10601 10597 10594 10591 10588 10585 10582 10579 10577 10574 10572 10570 10568 10565 10563 10560 10558 10556 10554 10552 10550 10549 10547 10546 10545 10544 10544 10545 10545 10546 10547 10548 10549 10550 10551 10553 10556 10560 10562 10564 10566 10571 10575 10577 10580 10582 10585 10590 10591 10591 10595 10603 10609 10616 10621 10622 10622 10628 10635 10639 10644 10652 10658 10661 10664 10671 10681
10644 10640 10636 10633 10630 10627 10625 10623 10622 10621 10620 10618 10617 10616 10614 10612 10609 10607 10605 10602 10599 10596 10592 10589 10586 10583 10580 10577 10574 10572 10570 10568 10566 10563 10561 10559 10556 10554 10552 10550 10548 10547 10546 10544 10542 10541 10540 10540 10540 10540 10541 10542 10543 10543 10545 10547 10550 10552 10554 10556 10559 10563 10566 10568 10571 10574 10577 10581 10583 10583 10589 10596 10601 10607 10613 10614 10616 10621 10624 10627 10633 10641 10648 10652 10656 10662 10670
10640 10636 10633 10630 10627 10624 10622 10621 10619 10618 10617 10616 10614 10613 10611 10609 10607 10605 10602 10600 10597 10594 10590 10587 10584 10581 10578 10575 10572 10569 10567 10565 10562 10560 10558 10555 10553 10551 10549 10547 10545 10543 10543 10541 10540 10538 10536 10535 10534 10534 10535 10536 10536 10537 10539 10541 10543 10545 10547 10548 10551 10555 10558 10560 10562 10565 10568 10572 10574 10577 10581 10586 10592 10599 10604 10606 10608 10611 10614 10619 10625 10631 10638 10643 10648 10654 10660
10637 10633 10630 10627 10624 10621 10619 10618 10616 10615 10614 10613 10612 10610 10608 10606 10604 10602 10600 10597 10594 10591 10588 10584 10581 10578 10576 10573 10570 10567 10565 10562 10559 10557 10554 10552 10550 10547 10546 10544 10542 10540 10538 10538 10537 10535 10532 10530 10529 10529 10529 10530 10530 10531 10532 10533 10535 10538 10540 10540 10543 10547 10550 10549 10551 10555 10558 10561 10564 10567 10571 10576 10583 10589 10593 10595 10598 10602 10606 10610 10614 10621 10630 10634 10638 10644 10647
10633 10630 10626 10623 10621 10618 10616 10614 10613 10612 10611 10610 10609 10607 10606 10604 10602 10599 10597 10594 10591 10588 10585 10581 10578 10575 10573 10570 10567 10565 10562 10559 10556 10554 10551 10548 10546 10544 10542 10540 10538 10536 10534 10533 10532 10530 10528 10526 10525 10524 10524 10524 10524 10524 10524 10525 10528 10531 10532 10532 10535 10539 10540 10539 10543 10548 10550 10551 10555 10559 10562 10568 10574 10579 10581 10585 10589 10593 10595 10599 10605 10613 10620 10621 10622 10629 10633
10629 10626 10623 10620 10617 10615 10613 10611 10610 10609 10608 10607 10606 10605 10603 10602 10600 10598 10595 10592 10589 10585 10582 10578 10575 10572 10569 10566 10564 10561 10559 10557 10554 10551 10548 10545 10542 10540 10537 10536 10534 10532 10530 10528 10527 10525 10523 10521 10520 10519 10518 10517 10517 10517 10517 10518 10520 10523 10524 10525 10528 10531 10531 10531 10535 10540 10541 10542 10547 10550 10553 10557 10562 10566 10570 10574 10579 10583 10586 10590 10596 10603 10607 10608 10610 10616 10623
10625 10622 10619 10616 10614 10611 10609 10608 10606 10605 10604 10603 10603 10602 10600 10599 10597 10595 10593 10590 10587 10583 10579 10575 10572 10569 10566 10563 10560 10557 10555 10553 10550 10547 10544 10541 10538 10535 10533 10531 10529 10527 10525 10523 10521 10519 10518 10516 10515 10513 10512 10511 10511 10511 10511 10511 10512 10515 10517 10519 10520 10522 10522 10522 10527 10531 10532 10534 10538 10541 10543 10546 10551 10556 10560 10563 10568 10574 10577 10579 10584 10589 10593 10596 10599 10605 10612
10621 10618 10615 10612 10610 10607 10606 10604 10603 10602 10601 10600 10599 10598 10597 10596 10594 10592 10590 10587 10584 10581 10577 10573 10570 10567 10564 10560 10557 10554 10552 10549 10546 10543 10540 10537 10534 10531 10529 10526 10524 10521 10519 10518 10515 10513 10511 10510 10508 10507 10506 10505 10504 10504 10503 10503 10505 10507 10509 10510 10512 10512 10511 10513 10517 10519 10521 10525 10530 10532 10534 10537 10541 10546 10550 10552 10558 10565 10567 10567 10571 10576 10581 10585 10588 10592 10599
10617 10614 10611 10608 10606 10604 10602 10601 10600 10599 10598 10597 10596 10595 10594 10593 10591 10589 10587 10584 10581 10578 10575 10571 10568 10565 10561 10558 10554 10551 10548 10545 10542 10539 10536 10532 10529 10527 10524 10521 10518 10516 10514 10511 10508 10506 10504 10502 10501 10500 10499 10498 10498 10497 10496 10496 10497 10498 10499 10501 10503 10504 10503 10504 10507 10509 10512 10516 10520 10522 10524 10528 10533 10536 10539 10542 10548 10553 10554 10555 10558 10564 10569 10574 10576 10580 10585
10612 10609 10606 10604 10602 10600 10598 10597 10596 10596 10595 10594 10593 10592 10591 10590 10588 10586 10583 10581 10578 10574 10571 10568 10565 10562 10558 10554 10550 10547 10545 10542 10538 10534 10531 10528 10525 10521 10519 10516 10512 10509 10507 10505 10501 10498 10496 10494 10494 10493 10491 10491 10491 10491 10490 10489 10490 10491 10491 10491 10493 10495 10497 10499 10501 10503 10506 10508 10510 10513 10515 10518 10521 10524 10525 10530 10537 10541 10542 10544 10546 10550 10556 10561 10564 10568 10573
10608 10605 10602 10599 10597 10596 10594 10594 10593 10592 10592 10591 10590 10589 10588 10587 10585 10583 10580 10577 10574 10571 10568 10565 10561 10558 10554 10551 10546 10543 10541 10538 10534 10531 10527 10524 10520 10516 10513 10510 10507 10503 10500 10497 10494 10491 10488 10486 10486 10485 10483 10483 10484 10484 10483 10483 10484 10483 10483 10483 10484 10486 10489 10491 10493 10496 10498 10499 10502 10505 10507 10509 10512 10514 10515 10519 10526 10530 10531 10533 10535 10539 10545 10550 10553 10557 10560
10602 10600 10597 10595 10593 10592 10591 10590 10590 10589 10588 10588 10587 10587 10586 10584 10582 10579 10577 10574 10572 10568 10565 10562 10558 10554 10551 10547 10543 10540 10537 10534 10531 10528 10523 10519 10516 10512 10507 10504 10501 10498 10494 10490 10487 10484 10481 10479 10478 10477 10476 10476 10477 10476 10475 10475 10476 10476 10476 10477 10478 10479 10481 10483 10485 10488 10489 10491 10494 10496 10497 10500 10505 10507 10507 10510 10515 10518 10520 10523 10526 10530 10535 10539 10542 10545 10549
10597 10594 10592 10590 10589 10588 10587 10587 10587 10586 10585 10585 10584 10584 10583 10581 10579 10577 10574 10571 10568 10565 10562 10558 10554 10550 10547 10544 10540 10536 10533 10530 10527 10524 10519 10514 10511 10507 10502 10498 10495 10491 10487 10484 10481 10478 10475 10473 10472 10470 10468 10469 10470 10469 10468 10468 10468 10468 10469 10471 10471 10472 10473 10475 10477 10479 10481 10483 10486 10486 10487 10492 10497 10498 10497 10498 10503 10507 10509 10511 10515 10520 10523 10525 10528 10532 10536
10590 10588 10586 10585 10584 10584 10584 10584 10583 10583 10582 10582 10582 10581 10580 10578 10576 10574 10571 10568 10565 10562 10558 10554 10551 10547 10544 10541 10537 10534 10530 10526 10522 10519 10514 10510 10505 10501 10496 10492 10489 10485 10481 10478 10475 10473 10470 10467 10466 10464 10462 10462 10463 10462 10462 10461 10461 10461 10462 10463 10463 10464 10465 10467 10469 10470 10473 10476 10477 10477 10478 10482 10485 10485 10486 10487 10491 10496 10497 10498 10502 10509 10512 10512 10513 10519 10524
10584 10582 10581 10580 10580 10580 10580 10581 10580 10580 10579 10579 10579 10578 10576 10575 10573 10571 10568 10565 10562 10559 10555 10551 10547 10544 10540 10537 10535 10532 10527 10523 10517 10512 10508 10504 10499 10494 10491 10487 10483 10480 10476 10472 10469 10467 10464 10461 10460 10458 10456 10455 10456 10456 10456 10455 10455 10454 10454 10455 10456 10457 10459 10460 10461 10463 10465 10466 10467 10467 10469 10471 10473 10473 10475 10478 10481 10484 10486 10487 10491 10498 10500 10500 10501 10505 10511
10578 10577 10576 10576 10576 10577 10577 10578 10577 10577 10577 10577 10576 10574 10573 10572 10570 10567 10565 10562 10559 10556 10552 10548 10544 10541 10537 10534 10531 10528 10524 10519 10513 10507 10503 10499 10493 10488 10484 10481 10478 10474 10470 10467 10463 10461 10458 10456 10454 10452 10450 10449 10449 10449 10449 10449 10448 10448 10448 10449 10449 10449 10450 10452 10453 10455 10455 10456 10456 10458 10461 10463 10464 10465 10466 10468 10471 10474 10477 10478 10482 10486 10489 10490 10490 10493 10498
10574 10572 10572 10572 10573 10574 10575 10575 10575 10575 10575 10574 10573 10572 10570 10569 10567 10564 10562 10559 10555 10552 10549 10545 10542 10539 10535 10531 10527 10522 10518 10514 10509 10502 10498 10494 10489 10483 10479 10476 10472 10468 10464 10462 10458 10454 10452 10451 10449 10446 10445 10444 10443 10441 10441 10441 10440 10440 10441 10441 10441 10441 10442 10444 10445 10446 10446 10447 10448 10450 10452 10454 10456 10457 10458 10459 10461 10465 10468 10469 10471 10475 10478 10480 10480 10482 10487
10570 10569 10569 10570 10571 10572 10572 10572 10572 10573 10572 10572 10571 10569 10568 10566 10563 10561 10558 10555 10551 10548 10545 10542 10538 10535 10532 10527 10523 10518 10513 10508 10503 10497 10491 10487 10484 10479 10474 10470 10466 10463 10459 10457 10452 10447 10445 10445 10443 10441 10439 10437 10435 10433 10433 10432 10431 10430 10430 10431 10432 10433 10434 10435 10435 10436 10437 10439 10441 10442 10444 10445 10446 10448 10449 10450 10452 10456 10459 10460 10462 10465 10468 10470 10471 10473 10476
10566 10566 10567 10568 10569 10569 10570 10570 10571 10571 10570 10569 10568 10567 10565 10563 10560 10557 10554 10551 10548 10544 10541 10538 10535 10532 10528 10524 10519 10515 10509 10503 10497 10492 10486 10480 10476 10473 10469 10465 10461 10457 10454 10450 10447 10443 10439 10438 10437 10435 10433 10430 10428 10426 10425 10425 10424 10424 10424 10424 10426 10426 10425 10425 10426 10426 10427 10429 10431 10432 10434 10435 10435 10437 10439 10441 10443 10446 10449 10451 10453 10455 10457 10459 10461 10463 10465
10564 10564 10565 10566 10567 10568 10568 10569 10569 10569 10568 10567 10566 10564 10562 10560 10556 10553 10550 10547 10544 10541 10538 10535 10532 10529 10525 10521 10515 10509 10504 10498 10492 10486 10481 10475 10470 10466 10462 10458 10455 10451 10447 10444 10441 10438 10435 10433 10431 10429 10427 10424 10422 10421 10420 10420 10420 10419 10419 10419 10419 10419 10419 10420 10420 10419 10419 10421 10422 10422 10423 10423 10424 10426 10429 10431 10434 10436 10437 10440 10443 10444 10445 10447 10450 10452 10454
10562 10563 10564 10565 10566 10567 10567 10567 10567 10567 10566 10564 10563 10561 10559 10556 10553 10550 10547 10544 10541 10539 10536 10533 10530 10526 10521 10516 10511 10505 10499 10493 10488 10482 10476 10470 10465 10461 10456 10453 10449 10446 10442 10438 10435 10433 10430 10428 10427 10425 10422 10419 10417 10415 10415 10414 10414 10413 10411 10411 10412 10412 10412 10413 10413 10413 10414 10415 10415 10414 10414 10414 10415 10417 10419 10421 10423 10425 10427 10429 10432 10433 10434 10436 10439 10440 10443
10561 10562 10563 10564 10565 10566 10566 10566 10565 10564 10563 10562 10560 10558 10556 10553 10550 10547 10544 10541 10539 10536 10533 10530 10526 10522 10517 10512 10508 10503 10496 10490 10484 10478 10472 10467 10462 10457 10453 10449 10445 10441 10437 10433 10430 10428 10425 10423 10422 10420 10417 10414 10412 10410 10409 10408 10408 10407 10406 10406 10406 10405 10405 10405 10405 10405 10406 10406 10406 10407 10408 10409 10409 10410 10411 10413 10415 10417 10418 10419 10422 10423 10424 10425 10427 10430 10433
10561 10562 10563 10564 10564 10565 10564 10564 10563 10562 10561 10559 10557 10555 10552 10550 10548 10546 10544 10540 10537 10534 10530 10526 10523 10518 10514 10509 10505 10500 10494 10486 10479 10473 10468 10464 10458 10453 10449 10445 10441 10438 10434 10429 10425 10423 10420 10418 10417 10415 10412 10409 10407 10406 10404 10403 10402 10401 10400 10399 10398 10398 10398 10398 10397 10397 10398 10398 10399 10400 10401 10403 10403 10404 10406 10408 10409 10410 10410 10411 10414 10415 10416 10417 10419 10421 10424
10561 10562 10563 10563 10563 10563 10563 10562 10561 10560 10558 10556 10554 10551 10549 10547 10545 10544 10542 10539 10534 10530 10527 10523 10519 10515 10511 10505 10500 10495 10489 10482 10476 10470 10465 10460 10455 10450 10445 10440 10436 10433 10430 10426 10422 10419 10416 10413 10412 10410 10407 10404 10402 10400 10398 10397 10396 10395 10393 10392 10392 10391 10391 10390 10389 10389 10389 10390 10391 10392 10393 10394 10395 10396 10397 10399 10401 10402 10403 10404 10405 10407 10409 10409 10411 10413 10417
10561 10562 10562 10562 10562 10561 10560 10559 10558 10557 10555 10553 10551 10548 10546 10544 10542 10540 10538 10535 10532 10527 10523 10520 10517 10513 10508 10503 10497 10491 10485 10479 10473 10467 10462 10457 10453 10448 10443 10438 10434 10430 10426 10422 10418 10415 10412 10409 10406 10404 10401 10398 10396 10394 10392 10391 10390 10388 10387 10386 10385 10384 10383 10383 10382 10381 10380 10381 10383 10384 10384 10385 10386 10387 10389 10390 10390 10391 10393 10395 10397 10399 10401 10402 10402 10405 10409
10561 10561 10562 10561 10560 10560 10559 10557 10556 10554 10552 10550 10548 10546 10544 10542 10540 10537 10535 10532 10528 10525 10521 10517 10514 10509 10504 10499 10493 10488 10483 10477 10471 10465 10459 10454 10450 10446 10441 10437 10432 10429 10424 10420 10415 10411 10408 10405 10401 10398 10395 10393 10391 10389 10387 10385 10383 10381 10380 10379 10378 10377 10376 10375 10374 10374 10373 10373 10374 10376 10376 10376 10377 10379 10380 10380 10380 10382 10386 10389 10389 10391 10393 10394 10394 10396 10400
10561 10561 10561 10560 10559 10558 10557 10555 10554 10552 10550 10548 10546 10544 10542 10540 10538 10535 10532 10529 10527 10523 10520 10516 10511 10506 10501 10495 10489 10484 10480 10474 10469 10463 10457 10452 10447 10443 10439 10434 10429 10425 10421 10417 10412 10408 10404 10400 10396 10393 10389 10387 10385 10383 10381 10379 10377 10375 10373 10372 10371 10371 10370 10369 10368 10368 10367 10367 10367 10368 10368 10369 10369 10370 10372 10372 10373 10375 10378 10380 10381 10382 10385 10385 10384 10386 10390
10560 10560 10559 10558 10557 10556 10555 10553 10551 10549 10548 10546 10545 10543 10541 10539 10537 10534 10531 10529 10526 10522 10518 10513 10508 10502 10497 10492 10487 10481 10476 10471 10465 10460 10455 10450 10445 10440 10436 10431 10426 10422 10417 10413 10408 10404 10400 10396 10391 10388 10385 10381 10379 10377 10375 10373 10371 10369 10368 10366 10365 10364 10363 10362 10362 10361 10361 10360 10360 10360 10361 10362 10362 10363 10363 10364 10366 10368 10370 10372 10373 10374 10376 10376 10376 10378 10381
10559 10558 10557 10556 10555 10554 10552 10550 10548 10546 10546 10545 10543 10542 10540 10538 10536 10534 10531 10528 10524 10520 10515 10510 10505 10500 10495 10490 10484 10479 10473 10468 10463 10458 10453 10448 10443 10438 10433 10429 10424 10419 10414 10409 10404 10400 10395 10392 10388 10384 10381 10378 10375 10372 10369 10367 10365 10364 10362 10360 10359 10357 10356 10356 10355 10355 10354 10354 10354 10353 10354 10354 10355 10355 10356 10357 10358 10361 10363 10363 10364 10366 10368 10369 10370 10372 10372
10557 10556 10556 10555 10553 10551 10550 10548 10546 10545 10544 10544 10543 10541 10539 10537 10535 10533 10530 10526 10522 10518 10513 10507 10503 10498 10493 10487 10482 10476 10471 10466 10461 10456 10451 10446 10441 10436 10431 10426 10422 10417 10412 10407 10402 10397 10393 10389 10385 10381 10378 10374 10371 10368 10365 10362 10360 10358 10356 10354 10353 10351 10350 10349 10348 10348 10348 10348 10347 10347 10347 10347 10348 10349 10350 10351 10353 10355 10356 10356 10357 10359 10361 10363 10364 10364 10363
10556 10555 10554 10553 10551 10549 10548 10547 10546 10544 10543 10543 10541 10540 10538 10536 10534 10531 10527 10524 10520 10516 10510 10506 10501 10497 10491 10484 10478 10473 10468 10463 10459 10454 10449 10444 10439 10433 10428 10423 10418 10414 10410 10405 10400 10396 10391 10387 10383 10379 10375 10371 10367 10364 10361 10358 10356 10353 10351 10349 10347 10346 10344 10343 10342 10342 10342 10341 10340 10341 10341 10341 10342 10343 10344 10345 10347 10349 10350 10350 10350 10352 10354 10355 10356 10357 10356
10555 10553 10552 10551 10550 10549 10548 10546 10545 10543 10542 10541 10540 10539 10537 10535 10532 10529 10525 10522 10518 10513 10509 10504 10500 10495 10488 10482 10476 10471 10466 10461 10456 10452 10447 10442 10436 10431 10426 10420 10415 10411 10407 10403 10399 10395 10390 10385 10381 10376 10372 10369 10365 10361 10358 10355 10352 10349 10347 10344 10342 10341 10339 10338 10337 10336 10336 10336 10335 10335 10335 10335 10335 10336 10337 10339 10341 10343 10344 10344 10344 10345 10346 10348 10350 10351 10351
10553 10552 10550 10549 10548 10547 10546 10545 10544 10542 10541 10540 10539 10537 10536 10534 10531 10527 10523 10519 10515 10511 10507 10503 10498 10491 10484 10478 10473 10468 10463 10458 10454 10449 10444 10439 10434 10429 10424 10419 10414 10409 10404 10400 10396 10391 10387 10383 10378 10374 10370 10366 10362 10358 10354 10351 10348 10346 10343 10341 10339 10337 10335 10334 10333 10332 10331 10331 10330 10330 10330 10330 10330 10330 10332 10333 10335 10336 10338 10338 10338 10339 10340 10342 10343 10345 10345